Regional Weather Roundup
Issued by NWS Midland/Odessa, TX

Skip options and go directly to product.
Home | Oldest Version | Previous Version | Current Version | All | Text Only | Save Text | Print | Product List | Glossary Off

Skip product version selection by date and time.   

901
ASUS44 KMAF 312310
RWRMAF
MIDLAND AREA WEATHER ROUNDUP
NATIONAL WEATHER SERVICE MIDLAND TX
600 PM CDT THU JUL 31 2014

...IN SOUTHWEST TEXAS AND SOUTHEAST NEW MEXICO...

CITY           SKY/WX    TMP DP  RH WIND       PRES   REMARKS
ALPINE         MOSUNNY   78  60  54 E5        30.23F
ANDREWS        FAIR      83  55  37 SE8       30.12F
ARTESIA        PTSUNNY   77  63  61 S7        30.14F
BIG SPRING     MOSUNNY   85  56  35 NE6       30.10F
CARLSBAD       PTSUNNY   79  61  53 SW6       30.12F
DRYDEN           N/A     96  63  33 N8G20     30.00F
FORT STOCKTON  MOSUNNY   84  61  45 E7        30.10F
GUAD PASS      MOSUNNY   67  59  75 NE28      30.23F
HOBBS          MOSUNNY   84  55  37 NE8       30.14F
MARFA          MOSUNNY   79  59  50 NE15G22   30.21F
MIDLAND AIRPK  MOSUNNY   83  57  40 E9        30.10F
MIDLAND INTL   MOSUNNY   84  57  39 N13       30.10F
ODESSA         MOSUNNY   82  56  40 E13G18    30.11F
PECOS          MOSUNNY   85  59  42 NW6       30.07F
PRESIDIO       FAIR      96  59  29 NE12      29.99F
SEMINOLE       MOSUNNY   85  53  33 E6        30.12F HAZE
SNYDER         SUNNY     82  61  48 E10       30.09S
WINK           PTSUNNY   86  58  38 VRB3      30.07F
$$
...OTHER STATIONS IN TEXAS...

CITY           SKY/WX    TMP DP  RH WIND       PRES   REMARKS
ABILENE        MOSUNNY   80  63  55 N12G18    30.05F
AMARILLO       SUNNY     80  53  39 NE13      30.16F
AUSTIN         PTSUNNY   96  72  45 N6        29.89F HX 104
BROWNSVILLE    SUNNY     91  74  57 SE18G26   29.90F HX 100
CORPUS CHRISTI MOSUNNY   94  71  47 SE21      29.89F HX 101
DALLAS FTW     CLOUDY    73  67  81 N18       29.99S
DEL RIO        MOSUNNY   99  68  36 MISG      29.90F HX 104
EL PASO        MOSUNNY   89  56  32 CALM      30.06F
HOUSTON INT    LGT RAIN  89  74  60 S10       29.90F
LUBBOCK        PTSUNNY   83  52  34 NE5       30.13S
SAN ANGELO     MOSUNNY   85  63  47 E10       30.03F
SAN ANTONIO    PTSUNNY   95  70  44 VRB3      29.91F HX 101
WACO           SUNNY     85  66  53 N21G28    29.95S
WICHITA FALLS  NOT AVBL
$$
...OTHER LOCATIONS IN NEW MEXICO...

CITY           SKY/WX    TMP DP  RH WIND       PRES   REMARKS
ALAMAGORDO     MOSUNNY   88  57  35 SW13      30.09F
ALBUQUERQUE    CLOUDY    81  55  40 SW9       30.18F
CANNON AFB     NOT AVBL
CLOVIS         NOT AVBL
HOLLOMAN AFB   MOSUNNY   88  57  35 S9        30.07F
ROSWELL        PTSUNNY   80  60  50 SE6       30.13F
RUIDOSO        PTSUNNY   68  59  73 SE12G17   30.33F
SANTA FE       CLOUDY    76  57  51 S10       30.23F
TRUTH OR CONSE PTSUNNY   87  57  35 SE7       30.10F
TUCUMCARI      MOSUNNY   82  48  30 NE6       30.17S
$$

USA.gov is the U.S. government's official web portal to all federal, state and local government web resources and services.